TimeCDT,TemperatureF,Dew PointF,Humidity,Sea Level PressureIn,VisibilityMPH,Wind Direction,Wind SpeedMPH,Gust SpeedMPH,PrecipitationIn,Events,Conditions,WindDirDegrees,DateUTC
12:51 AM,75.0,68.0,79,29.85,10.0,SE,15.0,21.9,N/A,,Overcast,140,2014-04-02 05:51:00
1:41 AM,73.9,68.0,82,29.88,10.0,SE,10.4,-,N/A,,Overcast,130,2014-04-02 06:41:00
1:51 AM,73.9,66.9,79,29.84,10.0,SE,10.4,-,N/A,,Overcast,130,2014-04-02 06:51:00
1:59 AM,73.9,68.0,82,29.88,10.0,SE,10.4,-,N/A,,Overcast,140,2014-04-02 06:59:00
2:47 AM,73.4,66.2,78,29.87,10.0,SE,11.5,-,N/A,,Overcast,140,2014-04-02 07:47:00
2:51 AM,73.9,66.9,79,29.82,10.0,SE,9.2,-,N/A,,Overcast,140,2014-04-02 07:51:00
3:18 AM,73.9,68.0,82,29.86,10.0,SE,15.0,-,N/A,,Overcast,140,2014-04-02 08:18:00
3:51 AM,73.9,68.0,82,29.81,9.0,SE,11.5,-,N/A,,Overcast,140,2014-04-02 08:51:00
4:51 AM,73.9,68.0,82,29.80,9.0,SSE,12.7,-,N/A,,Overcast,150,2014-04-02 09:51:00
5:01 AM,73.9,68.0,82,29.84,8.0,SSE,13.8,-,N/A,,Overcast,150,2014-04-02 10:01:00
5:51 AM,73.0,69.1,87,29.80,5.0,SE,11.5,-,N/A,,Overcast,140,2014-04-02 10:51:00
5:59 AM,73.0,69.1,87,29.84,4.0,SE,10.4,-,N/A,,Overcast,140,2014-04-02 10:59:00
6:11 AM,73.0,69.1,87,29.85,2.0,SE,10.4,-,N/A,,Overcast,140,2014-04-02 11:11:00
6:20 AM,73.0,69.1,87,29.85,2.0,SE,10.4,-,N/A,,Overcast,140,2014-04-02 11:20:00
7:51 AM,73.0,69.1,87,29.80,5.0,SE,11.5,-,N/A,,Overcast,140,2014-04-02 12:51:00
8:15 AM,73.0,69.1,87,29.85,2.0,SE,11.5,-,N/A,,Overcast,140,2014-04-02 13:15:00
8:25 AM,73.0,69.1,87,29.85,1.2,SE,12.7,-,N/A,,Overcast,140,2014-04-02 13:25:00
8:40 AM,73.0,69.1,87,29.85,1.2,SE,11.5,-,N/A,,Overcast,140,2014-04-02 13:40:00
8:51 AM,73.0,70.0,90,29.81,1.5,SE,11.5,-,N/A,,Overcast,140,2014-04-02 13:51:00
9:05 AM,73.0,69.1,87,29.85,2.0,SE,12.7,-,N/A,,Overcast,140,2014-04-02 14:05:00
9:12 AM,73.0,69.1,87,29.85,1.8,SE,12.7,-,N/A,,Overcast,140,2014-04-02 14:12:00
9:28 AM,73.0,69.1,87,29.85,2.5,SE,13.8,-,N/A,,Overcast,140,2014-04-02 14:28:00
9:38 AM,73.0,69.1,87,29.85,2.5,SE,11.5,-,N/A,,Overcast,130,2014-04-02 14:38:00
9:45 AM,73.4,69.8,88,29.85,1.8,SE,10.4,-,0.00,Rain,Light Rain,140,2014-04-02 14:45:00
9:46 AM,73.0,69.1,87,29.81,1.8,SE,10.4,-,0.00,Rain,Light Rain,130,2014-04-02 14:46:00
10:01 AM,73.0,69.1,87,29.85,1.2,SE,10.4,-,0.00,Rain,Light Rain,140,2014-04-02 15:01:00
10:16 AM,73.0,70.0,90,29.85,1.2,SSE,11.5,-,0.00,,Overcast,150,2014-04-02 15:16:00
10:28 AM,73.0,70.0,90,29.85,2.5,SSE,11.5,-,0.00,,Overcast,150,2014-04-02 15:28:00
10:37 AM,73.0,70.0,90,29.85,2.0,SSE,12.7,-,0.00,,Overcast,150,2014-04-02 15:37:00
10:46 AM,73.4,69.8,88,29.85,1.8,SSE,15.0,-,0.00,,Overcast,150,2014-04-02 15:46:00
10:51 AM,73.0,70.0,90,29.81,1.8,SE,12.7,-,0.00,,Overcast,140,2014-04-02 15:51:00
10:59 AM,73.9,70.0,87,29.85,2.5,SSE,12.7,-,N/A,,Overcast,150,2014-04-02 15:59:00
11:11 AM,73.0,70.0,90,29.86,2.0,SSE,13.8,-,N/A,,Overcast,160,2014-04-02 16:11:00
11:51 AM,75.9,69.1,79,29.80,6.0,SSE,15.0,-,N/A,,Haze,160,2014-04-02 16:51:00
12:51 PM,78.8,68.0,69,29.82,9.0,South,19.6,-,N/A,,Overcast,170,2014-04-02 17:51:00
1:51 PM,82.0,68.0,62,29.75,9.0,SSE,18.4,-,N/A,,Overcast,150,2014-04-02 18:51:00
2:23 PM,84.0,68.0,58,29.79,9.0,SSE,12.7,-,N/A,,Overcast,160,2014-04-02 19:23:00
2:51 PM,87.1,68.0,53,29.72,10.0,South,13.8,-,N/A,,Scattered Clouds,180,2014-04-02 19:51:00
3:51 PM,89.1,66.0,46,29.69,10.0,South,12.7,16.1,N/A,,Scattered Clouds,180,2014-04-02 20:51:00
4:51 PM,90.0,64.0,42,29.67,10.0,South,13.8,-,N/A,,Mostly Cloudy,180,2014-04-02 21:51:00
5:51 PM,90.0,64.0,42,29.66,10.0,SSE,9.2,-,N/A,,Clear,160,2014-04-02 22:51:00
6:51 PM,90.0,61.0,38,29.66,10.0,South,9.2,-,N/A,,Clear,170,2014-04-02 23:51:00
7:51 PM,84.9,61.0,44,29.65,10.0,ESE,6.9,-,N/A,,Clear,120,2014-04-03 00:51:00
8:51 PM,82.0,61.0,49,29.66,10.0,East,5.8,-,N/A,,Clear,100,2014-04-03 01:51:00
9:51 PM,79.0,62.1,56,29.69,10.0,East,10.4,-,N/A,,Clear,90,2014-04-03 02:51:00
10:51 PM,79.0,69.1,72,29.70,10.0,ESE,12.7,-,N/A,,Clear,120,2014-04-03 03:51:00
11:51 PM,78.1,69.1,74,29.71,10.0,ESE,12.7,-,N/A,,Clear,120,2014-04-03 04:51:00